Year,Month,Day,Hour,Minute,Value (Times are PST for temperature in C)
2010,06,29,00,00,13.20
2010,06,29,00,01,13.20
2010,06,29,00,02,13.20
2010,06,29,00,03,13.20
2010,06,29,00,04,13.20
2010,06,29,00,05,13.20
2010,06,29,00,06,13.20
2010,06,29,00,07,13.20
2010,06,29,00,08,13.20
2010,06,29,00,09,13.20
2010,06,29,00,10,13.20
2010,06,29,00,11,13.20
2010,06,29,00,12,13.10
2010,06,29,00,13,13.10
2010,06,29,00,14,13.10
2010,06,29,00,15,13.10
2010,06,29,00,16,13.10
2010,06,29,00,17,13.10
2010,06,29,00,18,13.10
2010,06,29,00,19,13.10
2010,06,29,00,20,13.10
2010,06,29,00,21,13.10
2010,06,29,00,22,13.00
2010,06,29,00,23,13.00
2010,06,29,00,24,13.00
2010,06,29,00,25,13.00
2010,06,29,00,26,13.00
2010,06,29,00,27,13.00
2010,06,29,00,28,12.90
2010,06,29,00,29,12.90
2010,06,29,00,30,12.90
2010,06,29,00,31,12.90
2010,06,29,00,32,12.90
2010,06,29,00,33,12.90
2010,06,29,00,34,12.90
2010,06,29,00,35,12.90
2010,06,29,00,36,12.90
2010,06,29,00,37,12.90
2010,06,29,00,38,12.90
2010,06,29,00,39,12.90
2010,06,29,00,40,12.80
2010,06,29,00,41,12.80
2010,06,29,00,42,12.80
2010,06,29,00,43,12.80
2010,06,29,00,44,12.80
2010,06,29,00,45,12.80
2010,06,29,00,46,12.80
2010,06,29,00,47,12.80
2010,06,29,00,48,12.80
2010,06,29,00,49,12.80
2010,06,29,00,50,12.80
2010,06,29,00,51,12.80
2010,06,29,00,52,12.80
2010,06,29,00,53,12.80
2010,06,29,00,54,12.80
2010,06,29,00,55,12.80
2010,06,29,00,56,12.80
2010,06,29,00,57,12.80
2010,06,29,00,58,12.80
2010,06,29,00,59,12.80
2010,06,29,01,00,12.80
2010,06,29,01,01,12.80
2010,06,29,01,02,12.70
2010,06,29,01,03,12.80
2010,06,29,01,04,12.80
2010,06,29,01,05,12.70
2010,06,29,01,06,12.70
2010,06,29,01,07,12.70
2010,06,29,01,08,12.70
2010,06,29,01,09,12.70
2010,06,29,01,10,12.70
2010,06,29,01,11,12.70
2010,06,29,01,12,12.70
2010,06,29,01,13,12.70
2010,06,29,01,14,12.70
2010,06,29,01,15,12.70
2010,06,29,01,16,12.70
2010,06,29,01,17,12.70
2010,06,29,01,18,12.70
2010,06,29,01,19,12.70
2010,06,29,01,20,12.70
2010,06,29,01,21,12.70
2010,06,29,01,22,12.70
2010,06,29,01,23,12.60
2010,06,29,01,24,12.60
2010,06,29,01,25,12.60
2010,06,29,01,26,12.60
2010,06,29,01,27,12.60
2010,06,29,01,28,12.60
2010,06,29,01,29,12.60
2010,06,29,01,30,12.60
2010,06,29,01,31,12.60
2010,06,29,01,32,12.60
2010,06,29,01,33,12.50
2010,06,29,01,34,12.50
2010,06,29,01,35,12.50
2010,06,29,01,36,12.50
2010,06,29,01,37,12.50
2010,06,29,01,38,12.50
2010,06,29,01,39,12.50
2010,06,29,01,40,12.50
2010,06,29,01,41,12.40
2010,06,29,01,42,12.40
2010,06,29,01,43,12.40
2010,06,29,01,44,12.40
2010,06,29,01,45,12.40
2010,06,29,01,46,12.40
2010,06,29,01,47,12.40
2010,06,29,01,48,12.40
2010,06,29,01,49,12.40
2010,06,29,01,50,12.40
2010,06,29,01,51,12.40
2010,06,29,01,52,12.30
2010,06,29,01,53,12.30
2010,06,29,01,54,12.30
2010,06,29,01,55,12.30
2010,06,29,01,56,12.30
2010,06,29,01,57,12.30
2010,06,29,01,58,12.30
2010,06,29,01,59,12.30
2010,06,29,02,00,12.30
2010,06,29,02,01,12.30
2010,06,29,02,02,12.30
2010,06,29,02,03,12.30
2010,06,29,02,04,12.20
2010,06,29,02,05,12.20
2010,06,29,02,06,12.20
2010,06,29,02,07,12.20
2010,06,29,02,08,12.20
2010,06,29,02,09,12.20
2010,06,29,02,10,12.20
2010,06,29,02,11,12.20
2010,06,29,02,12,12.20
2010,06,29,02,13,12.10
2010,06,29,02,14,12.10
2010,06,29,02,15,12.10
2010,06,29,02,16,12.10
2010,06,29,02,17,12.10
2010,06,29,02,18,12.10
2010,06,29,02,19,12.10
2010,06,29,02,20,12.10
2010,06,29,02,21,12.10
2010,06,29,02,22,12.10
2010,06,29,02,23,12.10
2010,06,29,02,24,12.10
2010,06,29,02,25,12.10
2010,06,29,02,26,12.10
2010,06,29,02,27,12.10
2010,06,29,02,28,12.10
2010,06,29,02,29,12.10
2010,06,29,02,30,12.10
2010,06,29,02,31,12.10
2010,06,29,02,32,12.10
2010,06,29,02,33,12.10
2010,06,29,02,34,12.10
2010,06,29,02,35,12.10
2010,06,29,02,36,12.10
2010,06,29,02,37,12.00
2010,06,29,02,38,12.00
2010,06,29,02,39,12.00
2010,06,29,02,40,12.00
2010,06,29,02,41,12.00
2010,06,29,02,42,11.90
2010,06,29,02,43,12.00
2010,06,29,02,44,12.00
2010,06,29,02,45,12.00
2010,06,29,02,46,12.00
2010,06,29,02,47,12.00
2010,06,29,02,48,12.00
2010,06,29,02,49,12.00
2010,06,29,02,50,12.00
2010,06,29,02,51,12.00
2010,06,29,02,52,11.90
2010,06,29,02,53,11.90
2010,06,29,02,54,11.90
2010,06,29,02,55,11.90
2010,06,29,02,56,11.90
2010,06,29,02,57,11.90
2010,06,29,02,58,11.90
2010,06,29,02,59,11.80
2010,06,29,03,00,11.80
2010,06,29,03,01,11.80
2010,06,29,03,02,11.80
2010,06,29,03,03,11.70
2010,06,29,03,04,11.70
2010,06,29,03,05,11.70
2010,06,29,03,06,11.70
2010,06,29,03,07,11.60
2010,06,29,03,08,11.60
2010,06,29,03,09,11.60
2010,06,29,03,10,11.50
2010,06,29,03,11,11.50
2010,06,29,03,12,11.60
2010,06,29,03,13,11.60
2010,06,29,03,14,11.50
2010,06,29,03,15,11.50
2010,06,29,03,16,11.40
2010,06,29,03,17,11.40
2010,06,29,03,18,11.40
2010,06,29,03,19,11.40
2010,06,29,03,20,11.40
2010,06,29,03,21,11.50
2010,06,29,03,22,11.50
2010,06,29,03,23,11.50
2010,06,29,03,24,11.60
2010,06,29,03,25,11.50
2010,06,29,03,26,11.50
2010,06,29,03,27,11.50
2010,06,29,03,28,11.40
2010,06,29,03,29,11.40
2010,06,29,03,30,11.30
2010,06,29,03,31,11.30
2010,06,29,03,32,11.30
2010,06,29,03,33,11.30
2010,06,29,03,34,11.30
2010,06,29,03,35,11.30
2010,06,29,03,36,11.40
2010,06,29,03,37,11.40
2010,06,29,03,38,11.50
2010,06,29,03,39,11.50
2010,06,29,03,40,11.50
2010,06,29,03,41,11.40
2010,06,29,03,42,11.50
2010,06,29,03,43,11.50
2010,06,29,03,44,11.50
2010,06,29,03,45,11.60
2010,06,29,03,46,11.60
2010,06,29,03,47,11.60
2010,06,29,03,48,11.50
2010,06,29,03,49,11.50
2010,06,29,03,50,11.50
2010,06,29,03,51,11.40
2010,06,29,03,52,11.40
2010,06,29,03,53,11.40
2010,06,29,03,54,11.30
2010,06,29,03,55,11.30
2010,06,29,03,56,11.30
2010,06,29,03,57,11.30
2010,06,29,03,58,11.30
2010,06,29,03,59,11.30
2010,06,29,04,00,11.30
2010,06,29,04,01,11.20
2010,06,29,04,02,11.20
2010,06,29,04,03,11.10
2010,06,29,04,04,11.10
2010,06,29,04,05,11.10
2010,06,29,04,06,11.00
2010,06,29,04,07,11.00
2010,06,29,04,08,11.00
2010,06,29,04,09,11.00
2010,06,29,04,10,11.00
2010,06,29,04,11,11.00
2010,06,29,04,12,11.10
2010,06,29,04,13,11.10
2010,06,29,04,14,11.10
2010,06,29,04,15,11.10
2010,06,29,04,16,11.20
2010,06,29,04,17,11.20
2010,06,29,04,18,11.20
2010,06,29,04,19,11.20
2010,06,29,04,20,11.20
2010,06,29,04,21,11.20
2010,06,29,04,22,11.20
2010,06,29,04,23,11.20
2010,06,29,04,24,11.20
2010,06,29,04,25,11.20
2010,06,29,04,26,11.20
2010,06,29,04,27,11.20
2010,06,29,04,28,11.20
2010,06,29,04,29,11.10
2010,06,29,04,30,11.10
2010,06,29,04,31,11.10
2010,06,29,04,32,11.10
2010,06,29,04,33,11.10
2010,06,29,04,34,11.00
2010,06,29,04,35,11.00
2010,06,29,04,36,11.00
2010,06,29,04,37,11.00
2010,06,29,04,38,11.00
2010,06,29,04,39,11.00
2010,06,29,04,40,10.90
2010,06,29,04,41,10.90
2010,06,29,04,42,10.90
2010,06,29,04,43,10.90
2010,06,29,04,44,10.90
2010,06,29,04,45,10.90
2010,06,29,04,46,10.80
2010,06,29,04,47,10.80
2010,06,29,04,48,10.80
2010,06,29,04,49,10.80
2010,06,29,04,50,10.80
2010,06,29,04,51,10.80
2010,06,29,04,52,10.80
2010,06,29,04,53,10.80
2010,06,29,04,54,10.80
2010,06,29,04,55,10.70
2010,06,29,04,56,10.70
2010,06,29,04,57,10.60
2010,06,29,04,58,10.60
2010,06,29,04,59,10.50
2010,06,29,05,00,10.50
2010,06,29,05,01,10.40
2010,06,29,05,02,10.30
2010,06,29,05,03,10.30
2010,06,29,05,04,10.20
2010,06,29,05,05,10.20
2010,06,29,05,06,10.20
2010,06,29,05,07,10.20
2010,06,29,05,08,10.20
2010,06,29,05,09,10.20
2010,06,29,05,10,10.20
2010,06,29,05,11,10.30
2010,06,29,05,12,10.30
2010,06,29,05,13,10.40
2010,06,29,05,14,10.40
2010,06,29,05,15,10.50
2010,06,29,05,16,10.60
2010,06,29,05,17,10.60
2010,06,29,05,18,10.60
2010,06,29,05,19,10.60
2010,06,29,05,20,10.60
2010,06,29,05,21,10.70
2010,06,29,05,22,10.70
2010,06,29,05,23,10.70
2010,06,29,05,24,10.70
2010,06,29,05,25,10.70
2010,06,29,05,26,10.80
2010,06,29,05,27,10.80
2010,06,29,05,28,10.80
2010,06,29,05,29,10.80
2010,06,29,05,30,10.80
2010,06,29,05,31,10.80
2010,06,29,05,32,10.70
2010,06,29,05,33,10.70
2010,06,29,05,34,10.70
2010,06,29,05,35,10.70
2010,06,29,05,36,10.70
2010,06,29,05,37,10.70
2010,06,29,05,38,10.80
2010,06,29,05,39,10.70
2010,06,29,05,40,10.70
2010,06,29,05,41,10.80
2010,06,29,05,42,10.70
2010,06,29,05,43,10.80
2010,06,29,05,44,10.80
2010,06,29,05,45,10.80
2010,06,29,05,46,10.80
2010,06,29,05,47,10.80
2010,06,29,05,48,10.80
2010,06,29,05,49,10.80
2010,06,29,05,50,10.80
2010,06,29,05,51,10.80
2010,06,29,05,52,10.80
2010,06,29,05,53,10.80
2010,06,29,05,54,10.80
2010,06,29,05,55,10.80
2010,06,29,05,56,10.80
2010,06,29,05,57,10.80
2010,06,29,05,58,10.80
2010,06,29,05,59,10.80
2010,06,29,06,00,10.90
2010,06,29,06,01,10.90
2010,06,29,06,02,10.90
2010,06,29,06,03,10.90
2010,06,29,06,04,10.90
2010,06,29,06,05,11.00
2010,06,29,06,06,11.00
2010,06,29,06,07,11.00
2010,06,29,06,08,11.00
2010,06,29,06,09,11.10
2010,06,29,06,10,11.10
2010,06,29,06,11,11.10
2010,06,29,06,12,11.10
2010,06,29,06,13,11.10
2010,06,29,06,14,11.10
2010,06,29,06,15,11.10
2010,06,29,06,16,11.10
2010,06,29,06,17,11.20
2010,06,29,06,18,11.20
2010,06,29,06,19,11.20
2010,06,29,06,20,11.20
2010,06,29,06,21,11.20
2010,06,29,06,22,11.20
2010,06,29,06,23,11.20
2010,06,29,06,24,11.20
2010,06,29,06,25,11.20
2010,06,29,06,26,11.20
2010,06,29,06,27,11.20
2010,06,29,06,28,11.30
2010,06,29,06,29,11.30
2010,06,29,06,30,11.30
2010,06,29,06,31,11.30
2010,06,29,06,32,11.30
2010,06,29,06,33,11.30
2010,06,29,06,34,11.30
2010,06,29,06,35,11.30
2010,06,29,06,36,11.30
2010,06,29,06,37,11.30
2010,06,29,06,38,11.30
2010,06,29,06,39,11.30
2010,06,29,06,40,11.30
2010,06,29,06,41,11.30
2010,06,29,06,42,11.30
2010,06,29,06,43,11.30
2010,06,29,06,44,11.20
2010,06,29,06,45,11.20
2010,06,29,06,46,11.20
2010,06,29,06,47,11.20
2010,06,29,06,48,11.20
2010,06,29,06,49,11.20
2010,06,29,06,50,11.20
2010,06,29,06,51,11.10
2010,06,29,06,52,11.10
2010,06,29,06,53,11.10
2010,06,29,06,54,11.10
2010,06,29,06,55,11.00
2010,06,29,06,56,11.00
2010,06,29,06,57,11.00
2010,06,29,06,58,10.90
2010,06,29,06,59,10.90
2010,06,29,07,00,10.90
2010,06,29,07,01,10.90
2010,06,29,07,02,10.90
2010,06,29,07,03,10.80
2010,06,29,07,04,10.80
2010,06,29,07,05,10.80
2010,06,29,07,06,10.80
2010,06,29,07,07,10.80
2010,06,29,07,08,10.80
2010,06,29,07,09,10.80
2010,06,29,07,10,10.80
2010,06,29,07,11,10.80
2010,06,29,07,12,10.80
2010,06,29,07,13,10.80
2010,06,29,07,14,10.80
2010,06,29,07,15,10.80
2010,06,29,07,16,10.80
2010,06,29,07,17,10.80
2010,06,29,07,18,10.80
2010,06,29,07,19,10.80
2010,06,29,07,20,10.90
2010,06,29,07,21,10.90
2010,06,29,07,22,11.00
2010,06,29,07,23,11.00
2010,06,29,07,24,11.10
2010,06,29,07,25,11.20
2010,06,29,07,26,11.30
2010,06,29,07,27,11.30
2010,06,29,07,28,11.40
2010,06,29,07,29,11.50
2010,06,29,07,30,11.60
2010,06,29,07,31,11.70
2010,06,29,07,32,11.80
2010,06,29,07,33,11.90
2010,06,29,07,34,11.90
2010,06,29,07,35,12.00
2010,06,29,07,36,12.10
2010,06,29,07,37,12.20
2010,06,29,07,38,12.30
2010,06,29,07,39,12.30
2010,06,29,07,40,12.40
2010,06,29,07,41,12.50
2010,06,29,07,42,12.70
2010,06,29,07,43,12.70
2010,06,29,07,44,12.80
2010,06,29,07,45,13.00
2010,06,29,07,46,13.10
2010,06,29,07,47,13.10
2010,06,29,07,48,13.20
2010,06,29,07,49,13.20
2010,06,29,07,50,13.20
2010,06,29,07,51,13.20
2010,06,29,07,52,13.20
2010,06,29,07,53,13.30
2010,06,29,07,54,13.30
2010,06,29,07,55,13.40
2010,06,29,07,56,13.40
2010,06,29,07,57,13.40
2010,06,29,07,58,13.40
2010,06,29,07,59,13.50
2010,06,29,08,00,13.50
2010,06,29,08,01,13.50
2010,06,29,08,02,13.60
2010,06,29,08,03,13.60
2010,06,29,08,04,13.70
2010,06,29,08,05,13.70
2010,06,29,08,06,13.80
2010,06,29,08,07,13.80
2010,06,29,08,08,13.90
2010,06,29,08,09,13.90
2010,06,29,08,10,13.90
2010,06,29,08,11,13.90
2010,06,29,08,12,14.00
2010,06,29,08,13,14.10
2010,06,29,08,14,14.10
2010,06,29,08,15,14.20
2010,06,29,08,16,14.20
2010,06,29,08,17,14.10
2010,06,29,08,18,14.10
2010,06,29,08,19,14.10
2010,06,29,08,20,14.10
2010,06,29,08,21,14.10
2010,06,29,08,22,14.10
2010,06,29,08,23,14.10
2010,06,29,08,24,14.00
2010,06,29,08,25,14.00
2010,06,29,08,26,14.00
2010,06,29,08,27,13.90
2010,06,29,08,28,13.90
2010,06,29,08,29,13.80
2010,06,29,08,30,13.80
2010,06,29,08,31,13.90
2010,06,29,08,32,13.90
2010,06,29,08,33,13.90
2010,06,29,08,34,14.00
2010,06,29,08,35,14.10
2010,06,29,08,36,14.10
2010,06,29,08,37,14.20
2010,06,29,08,38,14.20
2010,06,29,08,39,14.20
2010,06,29,08,40,14.20
2010,06,29,08,41,14.20
2010,06,29,08,42,14.20
2010,06,29,08,43,14.20
2010,06,29,08,44,14.30
2010,06,29,08,45,14.30
2010,06,29,08,46,14.30
2010,06,29,08,47,14.30
2010,06,29,08,48,14.30
2010,06,29,08,49,14.30
2010,06,29,08,50,14.30
2010,06,29,08,51,14.30
2010,06,29,08,52,14.40
2010,06,29,08,53,14.40
2010,06,29,08,54,14.50
2010,06,29,08,55,14.60
2010,06,29,08,56,14.60
2010,06,29,08,57,14.70
2010,06,29,08,58,14.70
2010,06,29,08,59,14.70
2010,06,29,09,00,14.80
2010,06,29,09,01,14.80
2010,06,29,09,02,14.80
2010,06,29,09,03,14.80
2010,06,29,09,04,14.80
2010,06,29,09,05,14.80
2010,06,29,09,06,14.70
2010,06,29,09,07,14.70
2010,06,29,09,08,14.70
2010,06,29,09,09,14.80
2010,06,29,09,10,14.90
2010,06,29,09,11,15.00
2010,06,29,09,12,15.00
2010,06,29,09,13,15.10
2010,06,29,09,14,15.20
2010,06,29,09,15,15.30
2010,06,29,09,16,15.30
2010,06,29,09,17,15.40
2010,06,29,09,18,15.50
2010,06,29,09,19,15.60
2010,06,29,09,20,15.70
2010,06,29,09,21,15.70
2010,06,29,09,22,15.60
2010,06,29,09,23,15.40
2010,06,29,09,24,15.20
2010,06,29,09,25,15.10
2010,06,29,09,26,15.00
2010,06,29,09,27,15.00
2010,06,29,09,28,15.00
2010,06,29,09,29,15.00
2010,06,29,09,30,15.00
2010,06,29,09,31,15.00
2010,06,29,09,32,15.10
2010,06,29,09,33,15.30
2010,06,29,09,34,15.40
2010,06,29,09,35,15.50
2010,06,29,09,36,15.70
2010,06,29,09,37,15.80
2010,06,29,09,38,15.90
2010,06,29,09,39,16.00
2010,06,29,09,40,16.20
2010,06,29,09,41,16.20
2010,06,29,09,42,16.30
2010,06,29,09,43,16.30
2010,06,29,09,44,16.30
2010,06,29,09,45,16.30
2010,06,29,09,46,16.30
2010,06,29,09,47,16.20
2010,06,29,09,48,16.20
2010,06,29,09,49,16.30
2010,06,29,09,50,16.30
2010,06,29,09,51,16.30
2010,06,29,09,52,16.40
2010,06,29,09,53,16.40
2010,06,29,09,54,16.40
2010,06,29,09,55,16.30
2010,06,29,09,56,16.20
2010,06,29,09,57,16.10
2010,06,29,09,58,16.10
2010,06,29,09,59,16.10
2010,06,29,10,00,16.10
2010,06,29,10,01,16.20
2010,06,29,10,02,16.20
2010,06,29,10,03,16.30
2010,06,29,10,04,16.40
2010,06,29,10,05,16.50
2010,06,29,10,06,16.60
2010,06,29,10,07,16.60
2010,06,29,10,08,16.60
2010,06,29,10,09,16.60
2010,06,29,10,10,16.50
2010,06,29,10,11,16.40
2010,06,29,10,12,16.40
2010,06,29,10,13,16.40
2010,06,29,10,14,16.30
2010,06,29,10,15,16.30
2010,06,29,10,16,16.30
2010,06,29,10,17,16.30
2010,06,29,10,18,16.30
2010,06,29,10,19,16.30
2010,06,29,10,20,16.30
2010,06,29,10,21,16.30
2010,06,29,10,22,16.20
2010,06,29,10,23,16.20
2010,06,29,10,24,16.20
2010,06,29,10,25,16.20
2010,06,29,10,26,16.20
2010,06,29,10,27,16.20
2010,06,29,10,28,16.30
2010,06,29,10,29,16.30
2010,06,29,10,30,16.50
2010,06,29,10,31,16.60
2010,06,29,10,32,16.70
2010,06,29,10,33,16.80
2010,06,29,10,34,16.90
2010,06,29,10,35,17.00
2010,06,29,10,36,17.20
2010,06,29,10,37,17.30
2010,06,29,10,38,17.30
2010,06,29,10,39,17.40
2010,06,29,10,40,17.50
2010,06,29,10,41,17.60
2010,06,29,10,42,17.70
2010,06,29,10,43,17.70
2010,06,29,10,44,17.80
2010,06,29,10,45,17.90
2010,06,29,10,46,17.90
2010,06,29,10,47,18.00
2010,06,29,10,48,18.00
2010,06,29,10,49,18.00
2010,06,29,10,50,18.10
2010,06,29,10,51,18.10
2010,06,29,10,52,18.10
2010,06,29,10,53,18.10
2010,06,29,10,54,18.20
2010,06,29,10,55,18.20
2010,06,29,10,56,18.10
2010,06,29,10,57,18.00
2010,06,29,10,58,18.00
2010,06,29,10,59,18.00
2010,06,29,11,00,17.90
2010,06,29,11,01,17.90
2010,06,29,11,02,17.80
2010,06,29,11,03,17.70
2010,06,29,11,04,17.60
2010,06,29,11,05,17.50
2010,06,29,11,06,17.50
2010,06,29,11,07,17.30
2010,06,29,11,08,17.20
2010,06,29,11,09,17.10
2010,06,29,11,10,17.10
2010,06,29,11,11,17.00
2010,06,29,11,12,17.00
2010,06,29,11,13,16.90
2010,06,29,11,14,16.90
2010,06,29,11,15,16.90
2010,06,29,11,16,16.90
2010,06,29,11,17,16.90
2010,06,29,11,18,16.90
2010,06,29,11,19,17.00
2010,06,29,11,20,17.00
2010,06,29,11,21,17.10
2010,06,29,11,22,17.10
2010,06,29,11,23,17.20
2010,06,29,11,24,17.20
2010,06,29,11,25,17.20
2010,06,29,11,26,17.20
2010,06,29,11,27,17.20
2010,06,29,11,28,17.20
2010,06,29,11,29,17.20
2010,06,29,11,30,17.30
2010,06,29,11,31,17.20
2010,06,29,11,32,17.20
2010,06,29,11,33,17.10
2010,06,29,11,34,17.00
2010,06,29,11,35,16.70
2010,06,29,11,36,16.50
2010,06,29,11,37,16.40
2010,06,29,11,38,16.30
2010,06,29,11,39,16.20
2010,06,29,11,40,16.10
2010,06,29,11,41,16.00
2010,06,29,11,42,15.90
2010,06,29,11,43,15.90
2010,06,29,11,44,15.80
2010,06,29,11,45,15.80
2010,06,29,11,46,15.80
2010,06,29,11,47,15.70
2010,06,29,11,48,15.60
2010,06,29,11,49,15.60
2010,06,29,11,50,15.60
2010,06,29,11,51,15.70
2010,06,29,11,52,15.70
2010,06,29,11,53,15.70
2010,06,29,11,54,15.70
2010,06,29,11,55,15.70
2010,06,29,11,56,15.70
2010,06,29,11,57,15.70
2010,06,29,11,58,15.70
2010,06,29,11,59,15.80
2010,06,29,12,00,15.90
2010,06,29,12,01,15.90
2010,06,29,12,02,16.00
2010,06,29,12,03,16.10
2010,06,29,12,04,16.10
2010,06,29,12,05,16.20
2010,06,29,12,06,16.40
2010,06,29,12,07,16.50
2010,06,29,12,08,16.70
2010,06,29,12,09,16.80
2010,06,29,12,10,16.90
2010,06,29,12,11,17.00
2010,06,29,12,12,17.10
2010,06,29,12,13,17.20
2010,06,29,12,14,17.20
2010,06,29,12,15,17.20
2010,06,29,12,16,17.20
2010,06,29,12,17,17.30
2010,06,29,12,18,17.30
2010,06,29,12,19,17.30
2010,06,29,12,20,17.30
2010,06,29,12,21,17.30
2010,06,29,12,22,17.30
2010,06,29,12,23,17.20
2010,06,29,12,24,17.10
2010,06,29,12,25,17.10
2010,06,29,12,26,17.10
2010,06,29,12,27,17.00
2010,06,29,12,28,16.90
2010,06,29,12,29,16.90
2010,06,29,12,30,16.80
2010,06,29,12,31,16.80
2010,06,29,12,32,16.80
2010,06,29,12,33,16.80
2010,06,29,12,34,16.80
2010,06,29,12,35,17.00
2010,06,29,12,36,17.10
2010,06,29,12,37,17.20
2010,06,29,12,38,17.20
2010,06,29,12,39,17.20
2010,06,29,12,40,17.20
2010,06,29,12,41,17.30
2010,06,29,12,42,17.30
2010,06,29,12,43,17.40
2010,06,29,12,44,17.50
2010,06,29,12,45,17.70
2010,06,29,12,46,17.80
2010,06,29,12,47,17.90
2010,06,29,12,48,17.90
2010,06,29,12,49,17.90
2010,06,29,12,50,17.90
2010,06,29,12,51,17.90
2010,06,29,12,52,17.90
2010,06,29,12,53,17.80
2010,06,29,12,54,17.80
2010,06,29,12,55,17.80
2010,06,29,12,56,17.80
2010,06,29,12,57,17.80
2010,06,29,12,58,17.80
2010,06,29,12,59,17.80
2010,06,29,13,00,17.80
2010,06,29,13,01,17.80
2010,06,29,13,02,17.80
2010,06,29,13,03,17.80
2010,06,29,13,04,17.80
2010,06,29,13,05,17.90
2010,06,29,13,06,17.90
2010,06,29,13,07,17.90
2010,06,29,13,08,17.90
2010,06,29,13,09,17.60
2010,06,29,13,10,17.40
2010,06,29,13,11,17.10
2010,06,29,13,12,16.90
2010,06,29,13,13,16.70
2010,06,29,13,14,16.50
2010,06,29,13,15,16.30
2010,06,29,13,16,16.00
2010,06,29,13,17,15.90
2010,06,29,13,18,15.80
2010,06,29,13,19,15.70
2010,06,29,13,20,15.70
2010,06,29,13,21,15.70
2010,06,29,13,22,15.80
2010,06,29,13,23,15.80
2010,06,29,13,24,16.00
2010,06,29,13,25,16.20
2010,06,29,13,26,16.40
2010,06,29,13,27,16.50
2010,06,29,13,28,16.50
2010,06,29,13,29,16.50
2010,06,29,13,30,16.70
2010,06,29,13,31,16.80
2010,06,29,13,32,16.90
2010,06,29,13,33,17.00
2010,06,29,13,34,17.10
2010,06,29,13,35,17.30
2010,06,29,13,36,17.40
2010,06,29,13,37,17.50
2010,06,29,13,38,17.50
2010,06,29,13,39,17.50
2010,06,29,13,40,17.40
2010,06,29,13,41,17.30
2010,06,29,13,42,17.20
2010,06,29,13,43,17.10
2010,06,29,13,44,16.90
2010,06,29,13,45,16.70
2010,06,29,13,46,16.50
2010,06,29,13,47,16.40
2010,06,29,13,48,16.20
2010,06,29,13,49,16.10
2010,06,29,13,50,16.00
2010,06,29,13,51,15.80
2010,06,29,13,52,15.60
2010,06,29,13,53,15.40
2010,06,29,13,54,15.10
2010,06,29,13,55,15.00
2010,06,29,13,56,14.80
2010,06,29,13,57,14.70
2010,06,29,13,58,14.70
2010,06,29,13,59,14.60
2010,06,29,14,00,14.60
2010,06,29,14,01,14.50
2010,06,29,14,02,14.40
2010,06,29,14,03,14.40
2010,06,29,14,04,14.40
2010,06,29,14,05,14.40
2010,06,29,14,06,14.50
2010,06,29,14,07,14.50
2010,06,29,14,08,14.50
2010,06,29,14,09,14.50
2010,06,29,14,10,14.60
2010,06,29,14,11,14.60
2010,06,29,14,12,14.70
2010,06,29,14,13,14.80
2010,06,29,14,14,14.80
2010,06,29,14,15,14.80
2010,06,29,14,16,14.80
2010,06,29,14,17,14.70
2010,06,29,14,18,14.70
2010,06,29,14,19,14.70
2010,06,29,14,20,14.60
2010,06,29,14,21,14.60
2010,06,29,14,22,14.70
2010,06,29,14,23,14.70
2010,06,29,14,24,14.70
2010,06,29,14,25,14.70
2010,06,29,14,26,14.70
2010,06,29,14,27,14.70
2010,06,29,14,28,14.70
2010,06,29,14,29,14.70
2010,06,29,14,30,14.70
2010,06,29,14,31,14.70
2010,06,29,14,32,14.60
2010,06,29,14,33,14.60
2010,06,29,14,34,14.50
2010,06,29,14,35,14.50
2010,06,29,14,36,14.50
2010,06,29,14,37,14.60
2010,06,29,14,38,14.60
2010,06,29,14,39,14.70
2010,06,29,14,40,14.70
2010,06,29,14,41,14.80
2010,06,29,14,42,14.80
2010,06,29,14,43,14.80
2010,06,29,14,44,14.80
2010,06,29,14,45,14.80
2010,06,29,14,46,14.80
2010,06,29,14,47,14.80
2010,06,29,14,48,14.70
2010,06,29,14,49,14.70
2010,06,29,14,50,14.60
2010,06,29,14,51,14.60
2010,06,29,14,52,14.50
2010,06,29,14,53,14.50
2010,06,29,14,54,14.40
2010,06,29,14,55,14.40
2010,06,29,14,56,14.40
2010,06,29,14,57,14.40
2010,06,29,14,58,14.40
2010,06,29,14,59,14.50
2010,06,29,15,00,14.50
2010,06,29,15,01,14.50
2010,06,29,15,02,14.50
2010,06,29,15,03,14.50
2010,06,29,15,04,14.60
2010,06,29,15,05,14.60
2010,06,29,15,06,14.60
2010,06,29,15,07,14.70
2010,06,29,15,08,14.70
2010,06,29,15,09,14.80
2010,06,29,15,10,14.80
2010,06,29,15,11,14.80
2010,06,29,15,12,14.80
2010,06,29,15,13,14.90
2010,06,29,15,14,15.00
2010,06,29,15,15,15.00
2010,06,29,15,16,15.00
2010,06,29,15,17,15.00
2010,06,29,15,18,15.00
2010,06,29,15,19,15.00
2010,06,29,15,20,15.10
2010,06,29,15,21,15.20
2010,06,29,15,22,15.30
2010,06,29,15,23,15.40
2010,06,29,15,24,15.50
2010,06,29,15,25,15.60
2010,06,29,15,26,15.70
2010,06,29,15,27,15.70
2010,06,29,15,28,15.70
2010,06,29,15,29,15.80
2010,06,29,15,30,15.80
2010,06,29,15,31,15.90
2010,06,29,15,32,15.90
2010,06,29,15,33,15.90
2010,06,29,15,34,15.90
2010,06,29,15,35,15.90
2010,06,29,15,36,15.80
2010,06,29,15,37,15.80
2010,06,29,15,38,15.80
2010,06,29,15,39,15.80
2010,06,29,15,40,15.80
2010,06,29,15,41,15.90
2010,06,29,15,42,15.90
2010,06,29,15,43,15.90
2010,06,29,15,44,16.00
2010,06,29,15,45,16.00
2010,06,29,15,46,16.00
2010,06,29,15,47,16.00
2010,06,29,15,48,16.00
2010,06,29,15,49,15.90
2010,06,29,15,50,15.80
2010,06,29,15,51,15.80
2010,06,29,15,52,15.80
2010,06,29,15,53,15.80
2010,06,29,15,54,15.80
2010,06,29,15,55,15.80
2010,06,29,15,56,15.80
2010,06,29,15,57,15.80
2010,06,29,15,58,15.80
2010,06,29,15,59,15.80
2010,06,29,16,00,15.80
2010,06,29,16,01,15.80
2010,06,29,16,02,15.80
2010,06,29,16,03,15.80
2010,06,29,16,04,15.80
2010,06,29,16,05,15.90
2010,06,29,16,06,15.90
2010,06,29,16,07,16.00
2010,06,29,16,08,15.90
2010,06,29,16,09,15.90
2010,06,29,16,10,15.90
2010,06,29,16,11,15.80
2010,06,29,16,12,15.80
2010,06,29,16,13,15.90
2010,06,29,16,14,15.90
2010,06,29,16,15,15.90
2010,06,29,16,16,16.00
2010,06,29,16,17,16.00
2010,06,29,16,18,16.10
2010,06,29,16,19,16.10
2010,06,29,16,20,16.00
2010,06,29,16,21,16.10
2010,06,29,16,22,16.10
2010,06,29,16,23,16.10
2010,06,29,16,24,16.10
2010,06,29,16,25,16.10
2010,06,29,16,26,16.20
2010,06,29,16,27,16.20
2010,06,29,16,28,16.30
2010,06,29,16,29,16.30
2010,06,29,16,30,16.40
2010,06,29,16,31,16.40
2010,06,29,16,32,16.40
2010,06,29,16,33,16.40
2010,06,29,16,34,16.40
2010,06,29,16,35,16.50
2010,06,29,16,36,16.60
2010,06,29,16,37,16.60
2010,06,29,16,38,16.60
2010,06,29,16,39,16.60
2010,06,29,16,40,16.70
2010,06,29,16,41,16.80
2010,06,29,16,42,16.80
2010,06,29,16,43,16.90
2010,06,29,16,44,16.90
2010,06,29,16,45,16.90
2010,06,29,16,46,16.90
2010,06,29,16,47,16.90
2010,06,29,16,48,17.00
2010,06,29,16,49,17.00
2010,06,29,16,50,17.00
2010,06,29,16,51,16.90
2010,06,29,16,52,17.00
2010,06,29,16,53,17.00
2010,06,29,16,54,17.00
2010,06,29,16,55,17.00
2010,06,29,16,56,16.90
2010,06,29,16,57,16.90
2010,06,29,16,58,16.90
2010,06,29,16,59,16.90
2010,06,29,17,00,17.00
2010,06,29,17,01,17.00
2010,06,29,17,02,17.00
2010,06,29,17,03,17.00
2010,06,29,17,04,17.00
2010,06,29,17,05,17.00
2010,06,29,17,06,17.00
2010,06,29,17,07,16.90
2010,06,29,17,08,16.90
2010,06,29,17,09,16.90
2010,06,29,17,10,16.90
2010,06,29,17,11,16.90
2010,06,29,17,12,16.90
2010,06,29,17,13,16.90
2010,06,29,17,14,16.80
2010,06,29,17,15,16.80
2010,06,29,17,16,16.70
2010,06,29,17,17,16.60
2010,06,29,17,18,16.60
2010,06,29,17,19,16.60